Location: Vista Encantada
(35.1109°N, 106.5681°W)
Time: 09:08:21
(UTC+00:00)

Cosmos 2058 Rocket - Pass Details

Date: 29 October 2020
Orbit: 610 x 640 km, 82.5° (Epoch: 04 December)

Event Time Altitude Azimuth Distance (km) Brightness Sun altitude
Rises 12:14:20 0° 352° (N) 2,939 6.4 -15.0°
Reaches altitude 10° 12:16:36 10° 351° (N) 2,023 5.5 -14.6°
Maximum altitude 12:21:05 81° 264° (W) 641 3.0 -13.7°
Drops below altitude 10° 12:25:30 10° 178° (S) 1,990 5.8 -12.8°
Sets 12:27:42 0° 177° (S) 2,888 6.6 -12.3°
